| time (UTC) | temp C | wind direction | speed KPH | gust KPH | rain 1hr cm | rain 24hr cm | rain mn cm | humidity % | barometer mb |
| 20260504050750 | 14 | 329 | 0.0 | 0.0 | 0.00 | 0.00 | 0.00 | 62 | 1015.5 |
| 20260504050247 | 15 | 328 | 0.0 | 1.6 | 0.00 | 0.00 | 0.00 | 61 | 1015.4 |
| 20260504045745 | 15 | 331 | 0.0 | 1.6 | 0.00 | 0.03 | 0.03 | 60 | 1015.4 |
| 20260504045239 | 15 | 336 | 0.0 | 0.0 | 0.00 | 0.03 | 0.03 | 59 | 1015.5 |
| 20260504044737 | 15 | 324 | 0.0 | 3.2 | 0.00 | 0.03 | 0.03 | 58 | 1015.3 |
| 20260504044234 | 15 | 313 | 0.0 | 1.6 | 0.00 | 0.03 | 0.03 | 56 | 1015.2 |
| 20260504043731 | 15 | 339 | 0.0 | 1.6 | 0.00 | 0.03 | 0.03 | 56 | 1015.2 |
| 20260504043228 | 15 | 263 | 3.2 | 4.8 | 0.00 | 0.03 | 0.03 | 55 | 1015.2 |
| 20260504042726 | 15 | 288 | 1.6 | 3.2 | 0.00 | 0.03 | 0.03 | 56 | 1015.4 |
| 20260504042222 | 16 | 297 | 1.6 | 1.6 | 0.00 | 0.03 | 0.03 | 54 | 1015.4 |
| 20260504041718 | 16 | 326 | 0.0 | 0.0 | 0.00 | 0.03 | 0.03 | 54 | 1015.2 |
| 20260504041214 | 16 | 259 | 1.6 | 4.8 | 0.00 | 0.03 | 0.03 | 53 | 1015.1 |
| 20260504040711 | 16 | 295 | 1.6 | 9.7 | 0.00 | 0.03 | 0.03 | 53 | 1015.0 |
| 20260504040208 | 16 | 253 | 6.4 | 8.0 | 0.00 | 0.03 | 0.03 | 54 | 1014.9 |
| 20260504035704 | 16 | 205 | 11.3 | 20.9 | 0.00 | 0.03 | 0.03 | 53 | 1014.8 |
| 20260504035202 | 16 | 287 | 1.6 | 11.3 | 0.00 | 0.03 | 0.03 | 52 | 1014.9 |
| 20260504034659 | 16 | 230 | 3.2 | 8.0 | 0.00 | 0.03 | 0.03 | 53 | 1015.2 |
| 20260504034156 | 16 | 166 | 3.2 | 8.0 | 0.00 | 0.03 | 0.03 | 53 | 1015.1 |
| 20260504033654 | 16 | 269 | 4.8 | 8.0 | 0.00 | 0.03 | 0.03 | 53 | 1015.0 |
| 20260504033151 | 16 | 206 | 3.2 | 4.8 | 0.00 | 0.03 | 0.03 | 53 | 1015.3 |
| 20260504032648 | 16 | 278 | 1.6 | 4.8 | 0.00 | 0.03 | 0.03 | 53 | 1015.4 |
| 20260504032145 | 15 | 220 | 3.2 | 3.2 | 0.00 | 0.03 | 0.03 | 53 | 1015.3 |
| 20260504031642 | 16 | 291 | 1.6 | 3.2 | 0.00 | 0.03 | 0.03 | 53 | 1015.5 |
| 20260504031138 | 15 | 291 | 1.6 | 1.6 | 0.00 | 0.03 | 0.03 | 53 | 1015.4 |
| 20260504030635 | 16 | 288 | 1.6 | 3.2 | 0.00 | 0.03 | 0.03 | 53 | 1015.7 |
| 20260504030131 | 16 | 276 | 1.6 | 3.2 | 0.00 | 0.03 | 0.03 | 52 | 1015.8 |
| 20260504025628 | 16 | 295 | 1.6 | 3.2 | 0.00 | 0.03 | 0.03 | 53 | 1015.7 |
| 20260504025125 | 16 | 294 | 1.6 | 1.6 | 0.00 | 0.03 | 0.03 | 53 | 1015.7 |
| 20260504024623 | 16 | 299 | 0.0 | 1.6 | 0.00 | 0.03 | 0.03 | 53 | 1015.8 |
| 20260504024119 | 16 | 302 | 0.0 | 1.6 | 0.00 | 0.03 | 0.03 | 54 | 1015.7 |
| 20260504023616 | 16 | 308 | 0.0 | 1.6 | 0.00 | 0.03 | 0.03 | 55 | 1016.0 |
| 20260504023111 | 16 | 308 | 0.0 | 0.0 | 0.00 | 0.03 | 0.03 | 55 | 1015.8 |
| 20260504022608 | 16 | 309 | 0.0 | 0.0 | 0.00 | 0.03 | 0.03 | 54 | 1015.8 |
| 20260504022104 | 16 | 308 | 0.0 | 1.6 | 0.00 | 0.03 | 0.03 | 53 | 1015.6 |
| 20260504021602 | 16 | 303 | 1.6 | 3.2 | 0.00 | 0.03 | 0.03 | 52 | 1015.5 |
| 20260504021058 | 16 | 303 | 1.6 | 3.2 | 0.00 | 0.03 | 0.03 | 52 | 1015.8 |
| 20260504020555 | 17 | 313 | 1.6 | 1.6 | 0.00 | 0.03 | 0.03 | 52 | 1015.7 |
| 20260504020051 | 17 | 314 | 0.0 | 0.0 | 0.00 | 0.03 | 0.03 | 51 | 1015.5 |
| 20260504015548 | 17 | 310 | 0.0 | 1.6 | 0.00 | 0.03 | 0.03 | 51 | 1015.5 |
| 20260504015044 | 17 | 322 | 0.0 | 1.6 | 0.00 | 0.03 | 0.03 | 50 | 1015.5 |
| 20260504014541 | 17 | 320 | 0.0 | 1.6 | 0.00 | 0.03 | 0.03 | 49 | 1015.3 |
| 20260504014038 | 17 | 320 | 0.0 | 0.0 | 0.00 | 0.03 | 0.03 | 48 | 1015.2 |
| 20260504013535 | 17 | 310 | 0.0 | 1.6 | 0.00 | 0.03 | 0.03 | 48 | 1015.3 |
| 20260504013032 | 18 | 314 | 0.0 | 8.0 | 0.00 | 0.03 | 0.03 | 47 | 1014.9 |
| 20260504012530 | 18 | 248 | 3.2 | 3.2 | 0.00 | 0.03 | 0.03 | 48 | 1014.7 |
| 20260504012028 | 18 | 237 | 4.8 | 4.8 | 0.00 | 0.03 | 0.03 | 47 | 1015.0 |
| 20260504011524 | 18 | 203 | 6.4 | 11.3 | 0.00 | 0.03 | 0.03 | 46 | 1015.0 |
| 20260504011020 | 18 | 293 | 3.2 | 4.8 | 0.00 | 0.03 | 0.03 | 47 | 1014.8 |
| 20260504010516 | 18 | 269 | 4.8 | 4.8 | 0.00 | 0.03 | 0.03 | 47 | 1014.9 |
| 20260504010012 | 18 | 284 | 4.8 | 8.0 | 0.00 | 0.03 | 0.03 | 48 | 1015.1 |
| 20260504005509 | 18 | 304 | 1.6 | 8.0 | 0.00 | 0.03 | 0.03 | 48 | 1015.0 |
| 20260504005007 | 18 | 257 | 3.2 | 8.0 | 0.00 | 0.03 | 0.03 | 48 | 1014.9 |
| 20260504004504 | 18 | 164 | 4.8 | 4.8 | 0.00 | 0.03 | 0.03 | 48 | 1015.0 |
| 20260504004001 | 18 | 311 | 1.6 | 3.2 | 0.00 | 0.03 | 0.03 | 49 | 1014.9 |
| 20260504003457 | 18 | 303 | 1.6 | 4.8 | 0.00 | 0.03 | 0.03 | 48 | 1015.0 |
| 20260504002954 | 18 | 309 | 0.0 | 3.2 | 0.00 | 0.03 | 0.03 | 47 | 1015.2 |
| 20260504002451 | 18 | 311 | 0.0 | 1.6 | 0.00 | 0.03 | 0.03 | 47 | 1015.1 |
| 20260504001948 | 18 | 295 | 0.0 | 4.8 | 0.00 | 0.03 | 0.03 | 46 | 1015.0 |
| 20260504001446 | 18 | 299 | 1.6 | 4.8 | 0.00 | 0.03 | 0.03 | 46 | 1015.0 |
| 20260504000942 | 19 | 319 | 0.0 | 1.6 | 0.00 | 0.03 | 0.03 | 45 | 1015.0 |
| 20260504000439 | 19 | 305 | 1.6 | 3.2 | 0.00 | 0.03 | 0.03 | 45 | 1015.0 |
| 20260503235936 | 19 | 302 | 3.2 | 4.8 | 0.00 | 0.03 | 0.03 | 44 | 1015.4 |
| 20260503235434 | 19 | 294 | 1.6 | 4.8 | 0.00 | 0.03 | 0.03 | 43 | 1015.3 |
| 20260503234931 | 20 | 293 | 1.6 | 8.0 | 0.00 | 0.03 | 0.03 | 42 | 1015.3 |
| 20260503234429 | 20 | 178 | 6.4 | 8.0 | 0.00 | 0.03 | 0.03 | 41 | 1015.3 |
| 20260503233927 | 20 | 278 | 0.0 | 9.7 | 0.00 | 0.03 | 0.03 | 42 | 1015.2 |
| 20260503233423 | 20 | 279 | 3.2 | 9.7 | 0.00 | 0.03 | 0.03 | 43 | 1015.5 |
| 20260503232919 | 20 | 279 | 6.4 | 9.7 | 0.00 | 0.03 | 0.03 | 41 | 1015.7 |
| 20260503232416 | 20 | 316 | 1.6 | 4.8 | 0.00 | 0.03 | 0.03 | 41 | 1015.7 |
| 20260503231914 | 20 | 282 | 4.8 | 4.8 | 0.00 | 0.03 | 0.03 | 39 | 1015.6 |
| 20260503231411 | 20 | 252 | 3.2 | 4.8 | 0.00 | 0.03 | 0.03 | 40 | 1015.7 |
| 20260503230908 | 20 | 277 | 4.8 | 4.8 | 0.00 | 0.03 | 0.03 | 39 | 1015.7 |
| 20260503230404 | 20 | 206 | 4.8 | 4.8 | 0.00 | 0.03 | 0.03 | 39 | 1016.0 |
| 20260503225902 | 20 | 248 | 6.4 | 9.7 | 0.00 | 0.03 | 0.03 | 38 | 1016.1 |
| 20260503225358 | 20 | 284 | 3.2 | 11.3 | 0.00 | 0.03 | 0.03 | 38 | 1016.1 |
| 20260503224854 | 21 | 242 | 8.0 | 9.7 | 0.00 | 0.03 | 0.03 | 39 | 1016.0 |
| 20260503224351 | 21 | 326 | 1.6 | 12.9 | 0.00 | 0.03 | 0.03 | 40 | 1016.3 |
| 20260503223849 | 21 | 241 | 8.0 | 12.9 | 0.00 | 0.03 | 0.03 | 38 | 1016.1 |
| 20260503223347 | 21 | 304 | 4.8 | 8.0 | 0.00 | 0.03 | 0.03 | 37 | 1016.2 |
| 20260503222842 | 20 | 286 | 8.0 | 11.3 | 0.00 | 0.03 | 0.03 | 37 | 1016.2 |
| 20260503222341 | 21 | 339 | 6.4 | 9.7 | 0.00 | 0.03 | 0.03 | 38 | 1016.2 |
| 20260503221838 | 20 | 294 | 3.2 | 11.3 | 0.00 | 0.03 | 0.03 | 38 | 1016.3 |
| 20260503221337 | 21 | 270 | 4.8 | 8.0 | 0.00 | 0.03 | 0.03 | 37 | 1016.4 |
| 20260503220832 | 21 | 318 | 4.8 | 12.9 | 0.00 | 0.03 | 0.03 | 37 | 1016.3 |
| 20260503220330 | 21 | 247 | 11.3 | 12.9 | 0.00 | 0.03 | 0.03 | 36 | 1016.7 |
| 20260503215826 | 21 | 271 | 9.7 | 11.3 | 0.00 | 0.03 | 0.03 | 38 | 1016.6 |
| 20260503215324 | 21 | 204 | 4.8 | 9.7 | 0.00 | 0.03 | 0.03 | 37 | 1016.3 |
| 20260503214821 | 21 | 275 | 1.6 | 4.8 | 0.00 | 0.03 | 0.03 | 38 | 1016.7 |
| 20260503214318 | 21 | 260 | 6.4 | 9.7 | 0.00 | 0.03 | 0.03 | 37 | 1016.8 |
| 20260503213816 | 21 | 262 | 4.8 | 4.8 | 0.00 | 0.03 | 0.03 | 41 | 1016.8 |
| 20260503213314 | 21 | 276 | 8.0 | 12.9 | 0.00 | 0.03 | 0.03 | 38 | 1017.0 |
| 20260503212810 | 21 | 276 | 3.2 | 8.0 | 0.00 | 0.03 | 0.03 | 39 | 1016.9 |
| 20260503212308 | 20 | 282 | 6.4 | 14.5 | 0.00 | 0.03 | 0.03 | 39 | 1017.3 |
| 20260503211805 | 21 | 292 | 6.4 | 9.7 | 0.00 | 0.03 | 0.03 | 37 | 1017.3 |
| 20260503211302 | 21 | 313 | 1.6 | 3.2 | 0.00 | 0.03 | 0.03 | 38 | 1017.3 |
| 20260503210801 | 21 | 299 | 6.4 | 11.3 | 0.00 | 0.03 | 0.03 | 38 | 1017.3 |
| 20260503210300 | 21 | 119 | 1.6 | 4.8 | 0.00 | 0.03 | 0.03 | 39 | 1017.4 |
| 20260503205754 | 21 | 308 | 1.6 | 8.0 | 0.00 | 0.03 | 0.03 | 36 | 1017.9 |
| 20260503205251 | 21 | 346 | 4.8 | 8.0 | 0.00 | 0.03 | 0.03 | 36 | 1017.7 |
| 20260503204748 | 21 | 356 | 1.6 | 8.0 | 0.00 | 0.03 | 0.03 | 37 | 1017.8 |
| 20260503204245 | 21 | 332 | 3.2 | 9.7 | 0.00 | 0.03 | 0.03 | 38 | 1017.8 |
| 20260503203743 | 21 | 275 | 4.8 | 8.0 | 0.00 | 0.03 | 0.03 | 39 | 1017.9 |
| 20260503203240 | 21 | 316 | 1.6 | 9.7 | 0.00 | 0.03 | 0.03 | 41 | 1018.0 |
| 20260503202737 | 20 | 225 | 6.4 | 9.7 | 0.00 | 0.03 | 0.03 | 39 | 1018.0 |
| 20260503202235 | 20 | 184 | 3.2 | 4.8 | 0.00 | 0.03 | 0.03 | 37 | 1018.1 |
| 20260503201732 | 20 | 253 | 4.8 | 9.7 | 0.00 | 0.03 | 0.03 | 38 | 1018.1 |
| 20260503201230 | 21 | 322 | 0.0 | 4.8 | 0.00 | 0.03 | 0.03 | 38 | 1018.2 |
| 20260503200726 | 20 | 140 | 4.8 | 9.7 | 0.00 | 0.03 | 0.03 | 37 | 1018.6 |
| 20260503200222 | 21 | 251 | 6.4 | 9.7 | 0.00 | 0.03 | 0.03 | 38 | 1018.6 |
| 20260503195719 | 20 | 271 | 4.8 | 8.0 | 0.00 | 0.03 | 0.03 | 36 | 1018.8 |
| 20260503195216 | 20 | 338 | 4.8 | 11.3 | 0.00 | 0.03 | 0.03 | 39 | 1019.0 |
| 20260503194714 | 20 | 278 | 4.8 | 8.0 | 0.00 | 0.03 | 0.03 | 36 | 1018.9 |
| 20260503194209 | 20 | 325 | 0.0 | 4.8 | 0.00 | 0.03 | 0.03 | 38 | 1019.2 |
| 20260503193706 | 20 | 321 | 0.0 | 3.2 | 0.00 | 0.03 | 0.03 | 42 | 1019.2 |
| 20260503193202 | 20 | 348 | 3.2 | 8.0 | 0.00 | 0.03 | 0.03 | 37 | 1019.3 |
| 20260503192657 | 20 | 280 | 3.2 | 8.0 | 0.00 | 0.03 | 0.03 | 41 | 1019.3 |
| 20260503192153 | 19 | 218 | 6.4 | 9.7 | 0.00 | 0.03 | 0.03 | 42 | 1019.3 |
| 20260503191650 | 19 | 148 | 3.2 | 4.8 | 0.00 | 0.03 | 0.03 | 42 | 1019.6 |
| 20260503191147 | 19 | 213 | 4.8 | 8.0 | 0.00 | 0.03 | 0.03 | 42 | 1019.4 |
| 20260503190644 | 18 | 204 | 4.8 | 9.7 | 0.00 | 0.03 | 0.03 | 41 | 1019.7 |
| 20260503190141 | 18 | 265 | 4.8 | 8.0 | 0.00 | 0.03 | 0.03 | 41 | 1019.7 |
| 20260503185637 | 18 | 205 | 6.4 | 12.9 | 0.00 | 0.03 | 0.03 | 38 | 1019.9 |
| 20260503185132 | 18 | 223 | 4.8 | 9.7 | 0.00 | 0.03 | 0.03 | 38 | 1019.8 |
| 20260503184628 | 18 | 358 | 0.0 | 3.2 | 0.00 | 0.03 | 0.03 | 38 | 1019.9 |
| 20260503184125 | 18 | 236 | 3.2 | 8.0 | 0.00 | 0.03 | 0.03 | 40 | 1020.0 |
| 20260503183621 | 18 | 257 | 1.6 | 11.3 | 0.00 | 0.03 | 0.03 | 40 | 1020.1 |
| 20260503183118 | 18 | 216 | 3.2 | 8.0 | 0.00 | 0.03 | 0.03 | 43 | 1020.2 |
| 20260503182617 | 17 | 147 | 4.8 | 11.3 | 0.00 | 0.03 | 0.03 | 40 | 1020.3 |
| 20260503182115 | 18 | 145 | 3.2 | 9.7 | 0.00 | 0.03 | 0.03 | 40 | 1020.3 |
| 20260503181611 | 18 | 343 | 3.2 | 12.9 | 0.00 | 0.03 | 0.03 | 39 | 1020.4 |
| 20260503181108 | 18 | 205 | 6.4 | 8.0 | 0.00 | 0.03 | 0.03 | 40 | 1020.4 |
| 20260503180605 | 17 | 181 | 4.8 | 9.7 | 0.00 | 0.03 | 0.03 | 41 | 1020.4 |
| 20260503180103 | 17 | 284 | 3.2 | 8.0 | 0.00 | 0.03 | 0.03 | 41 | 1020.6 |
| 20260503175559 | 17 | 252 | 8.0 | 11.3 | 0.00 | 0.03 | 0.03 | 43 | 1020.7 |
| 20260503175057 | 18 | 240 | 8.0 | 11.3 | 0.00 | 0.03 | 0.03 | 44 | 1020.7 |
| 20260503174553 | 17 | 309 | 1.6 | 1.6 | 0.00 | 0.03 | 0.03 | 44 | 1020.8 |
| 20260503174050 | 16 | 77 | 1.6 | 3.2 | 0.00 | 0.03 | 0.03 | 42 | 1020.7 |
| 20260503173545 | 17 | 244 | 4.8 | 9.7 | 0.00 | 0.03 | 0.03 | 43 | 1020.8 |
| 20260503173042 | 17 | 319 | 8.0 | 9.7 | 0.00 | 0.03 | 0.03 | 43 | 1021.1 |
| 20260503172539 | 16 | 287 | 3.2 | 3.2 | 0.00 | 0.03 | 0.03 | 42 | 1021.0 |
| 20260503172036 | 16 | 292 | 3.2 | 11.3 | 0.00 | 0.03 | 0.03 | 42 | 1021.3 |
| 20260503171533 | 16 | 231 | 3.2 | 4.8 | 0.00 | 0.03 | 0.03 | 44 | 1021.2 |
| 20260503171030 | 17 | 267 | 4.8 | 4.8 | 0.00 | 0.03 | 0.03 | 45 | 1021.3 |
| 20260503170526 | 16 | 257 | 4.8 | 4.8 | 0.00 | 0.03 | 0.03 | 44 | 1021.3 |
| 20260503150919 | 14 | 321 | 1.6 | 3.2 | 0.00 | 0.03 | 0.03 | 62 | 1022.3 |
| 20260503150415 | 14 | 338 | 0.0 | 3.2 | 0.00 | 0.03 | 0.03 | 62 | 1022.2 |
| 20260503131308 | 9 | 6 | 0.0 | 1.6 | 0.00 | 0.03 | 0.03 | 92 | 1022.0 |
| 20260503130806 | 8 | 359 | 0.0 | 1.6 | 0.00 | 0.03 | 0.03 | 96 | 1022.2 |
| 20260503130303 | 8 | 0 | 0.0 | 1.6 | 0.00 | 0.03 | 0.03 | 98 | 1022.2 |
| 20260503110657 | 5 | 343 | 0.0 | 0.0 | 0.00 | 0.00 | 0.00 | 99 | 1021.0 |
| 20260503110154 | 5 | 343 | 0.0 | 0.0 | 0.00 | 0.00 | 0.00 | 99 | 1021.0 |
| 20260503100121 | 5 | 337 | 0.0 | 0.0 | 0.00 | 0.00 | 0.00 | 99 | 1020.8 |
| 20260503081510 | 6 | 337 | 0.0 | 0.0 | 0.00 | 0.00 | 0.00 | 99 | 1020.5 |
| 20260503081007 | 6 | 339 | 0.0 | 0.0 | 0.00 | 0.00 | 0.00 | 99 | 1020.4 |
| 20260503080503 | 6 | 343 | 0.0 | 0.0 | 0.00 | 0.00 | 0.00 | 99 | 1020.4 |
| 20260503072940 | 7 | 335 | 0.0 | 0.0 | 0.00 | 0.00 | 0.00 | 99 | 1020.2 |
| 20260503072437 | 7 | 335 | 0.0 | 0.0 | 0.00 | 0.00 | 0.00 | 99 | 1020.2 |
| 20260503071934 | 7 | 334 | 0.0 | 1.6 | 0.00 | 0.00 | 0.00 | 99 | 1020.4 |
| 20260503071431 | 7 | 336 | 0.0 | 0.0 | 0.00 | 0.00 | 0.00 | 99 | 1020.2 |
| 20260503070927 | 7 | 336 | 0.0 | 0.0 | 0.00 | 0.00 | 0.00 | 99 | 1020.2 |
| 20260503070424 | 7 | 332 | 0.0 | 0.0 | 0.00 | 0.00 | 0.00 | 99 | 1020.2 |